Home   Weather   Leon   Past weeks

Flag for Mexico Past Weather in Leon, Guanajuato, Mexico — Yesterday and Last 2 Weeks

Now
64 °F

Passing clouds.


Feels Like: 64 °F
Forecast: 59 / 82 °F
Wind: 6 mph from Northeast

Location: Del Bajio / Leon

Current Time: May 30, 2017 at 8:13:05 am

Latest Report: May 30, 2017 at 6:50 am


Visibility: 10 mi

Pressure: 29.86 "Hg (24.15 "Hg at 1808m altitude)

Humidity: 68%

Dew Point: 54 °F

Location of LeonLocation

Past Weather in Leon — Graph

°F

Leon Temperature Yesterday

Maximum temperature yesterday: 88 °F (at 3:43 pm)
Minimum temperature yesterday: 59 °F (at 5:50 am)
Average temperature yesterday: 73 °F

High & Low Weather Summary for the Past Weeks

 TemperatureHumidityPressure
High93 °F (May 17, 4:50 pm)83% (May 29, 11:48 pm)30.34 "Hg (May 29, 11:48 pm)
Low54 °F (May 23, 6:40 am)8% (May 23, 5:53 pm)29.54 "Hg (May 19, 6:46 pm)
Average77 °F33%30.02 "Hg
* Reported May 15 6:50 am — May 30 6:50 am, Leon. Weather by CustomWeather, © 2017

Note: Actual official high and low records may vary slightly from our data, if they occured in-between our weather recording intervals... More about our weather records

Advertising

Leon Weather History for the Previous 24 Hours

Scroll right to see more
 ConditionsComfort  
Time TempWeatherWind HumidityBarometerVisibility
6:50 am
Tue, May 30
64 °FPassing clouds.6 mph68%29.86 "Hg10 mi
5:46 am63 °FPassing clouds.5 mph73%30.28 "Hg8 mi
4:50 am63 °FPassing clouds.No wind73%30.21 "Hg8 mi
12:47 am63 °FMostly cloudy.6 mph77%29.85 "Hg8 mi
11:48 pm
Mon, May 29
63 °FMostly cloudy.13 mph83%30.32 "Hg8 mi
10:42 pm68 °FPartly cloudy.14 mph56%30.28 "Hg8 mi
9:47 pm70 °FPartly cloudy.10 mph57%29.80 "Hg8 mi
8:52 pm70 °FPartly cloudy.8 mph57%30.15 "Hg8 mi
7:45 pm75 °FBroken clouds.14 mph50%30.11 "Hg10 mi
6:44 pm77 °FMostly cloudy.9 mph44%29.71 "Hg10 mi
5:42 pm84 °FMostly cloudy.18 mph31%30.09 "Hg10 mi
4:43 pm86 °FPartly sunny.No wind25%30.10 "Hg10 mi
3:43 pm88 °FScattered clouds.6 mph25%29.64 "Hg10 mi
2:42 pm84 °FScattered clouds.5 mph29%30.16 "Hg10 mi
1:45 pm82 °FScattered clouds.6 mph32%30.19 "Hg8 mi
12:50 pm81 °FPassing clouds.7 mph34%29.72 "Hg7 mi
11:44 am77 °FPassing clouds.7 mph39%30.24 "Hg6 mi
10:45 am75 °FSunny.No wind41%30.26 "Hg6 mi
9:45 am72 °FSunny.No wind50%29.80 "Hg6 mi
8:47 am66 °FSunny.6 mph60%30.24 "Hg6 mi
Weather by CustomWeather, © 2017

See weather overviewHow to use our weather pages